Regional Weather Roundup
Issued by NWS

Home | Current Version | Previous Version | Graphics & Text | Print | Product List | Glossary On
Versions: 1 2 3 4 5 6 7 8 9 10 11 12 13 14 15 16 17 18 19 20 21 22 23 24 25 26 27 28 29 30 31 32 33 34 35 36 37 38 39 40 41 42 43 44 45 46 47 48 49 50
000
ASUS43 KIND 181200
RWRIN

WEATHER ROUNDUP FOR INDIANA
NATIONAL WEATHER SERVICE INDIANAPOLIS IN
800 AM EDT FRI AUG 18 2017

NOTE: "FAIR" INDICATES FEW OR NO CLOUDS BELOW 12,000 FEET WITH NO
SIGNIFICANT WEATHER AND/OR OBSTRUCTIONS TO VISIBILITY.

* - STATION DOES NOT REPORT WEATHER SUCH AS PRECIPITATION OR FOG.

+ - STATION NOT QUALITY CONTROLLED BY THE NATIONAL WEATHER SERVICE.
    USE DATA WITH CAUTION...ESPECIALLY DEWPOINT AND RELATIVE
    HUMIDITY OBSERVATIONS.

INZ001>003-010>013-019-020-181300-
NORTHWEST INDIANA

CITY           SKY/WX    TMP DP  RH WIND       PRES   REMARKS
GARY /AIRPORT/ PTCLDY    68  64  88 W8        29.84R
MICHIGAN CITY+ PTSUNNY   68  61  77 NW7       29.83R
MONTICELLO +   SUNNY     64  63  94 SW6       29.86R
6HR MIN TEMP:  64; 6HR MAX TEMP:  70;

RENSSELAER +   PTCLDY    63  59  88 SW5       29.86R

$$

LMZ046-743>745-181300-
SOUTHERN LAKE MICHIGAN

STATION/POSITION TIME  TEMP    WIND        PRES    WAVE
                       AIR SEA DIR/SP/G            HT
                 (UTC) (F)     (DEG/KT/KT) (MB)    (FT)
BURNS HARBOR     1140   70     280/ 13/ 16 1010.5R
MICHIGAN CITY    1130   70     280/ 19/ 20   N/A
5NW MICH CITY    1150   71 74  300/ 14/ 19   N/A     4

$$

INZ004-005-014>016-021>024-181300-
NORTH CENTRAL INDIANA

CITY           SKY/WX    TMP DP  RH WIND       PRES   REMARKS
ELKHART        MOSUNNY   66  64  94 SW7       29.81R
GOSHEN         SUNNY     67  62  84 SW8       29.82R
6HR MIN TEMP:  65; 6HR MAX TEMP:  71;

PERU/GRISSOM   SUNNY     66  66 100 SW9       29.85R
6HR MIN TEMP:  64; 6HR MAX TEMP:  70;

SOUTH BEND     PTSUNNY   65  65 100 W6        29.82R
6HR MIN TEMP:  64; 6HR MAX TEMP:  67;

WARSAW +       SUNNY     64  64 100 SW7       29.83R

$$

INZ006>009-017-018-025>027-181300-
NORTHEAST INDIANA

CITY           SKY/WX    TMP DP  RH WIND       PRES   REMARKS
FORT WAYNE     MOSUNNY   67  64  90 SW9       29.84R
6HR MIN TEMP:  66; 6HR MAX TEMP:  69;

KENDALLVILLE + SUNNY     66  65  96 W10       29.82R

$$

INZ028-029-035-036-043>045-051>053-181300-
WEST CENTRAL INDIANA

CITY           SKY/WX    TMP DP  RH WIND       PRES   REMARKS
LAFAYETTE      CLEAR     64  64 100 W3        29.87R
6HR MIN TEMP:  63; 6HR MAX TEMP:  68;

TERRE HAUTE    CLEAR     65  63  93 SW5       29.90S
6HR MIN TEMP:  62; 6HR MAX TEMP:  70;


$$

INZ030>032-037>040-046>048-054>057-064-065-181300-
CENTRAL INDIANA

CITY           SKY/WX    TMP DP  RH WIND       PRES   REMARKS
COLUMBUS       SUNNY     68  64  88 CALM      29.90R
GREENWOOD *+   SUNNY     67  65  93 W3        29.90S
6HR MIN TEMP:  66; 6HR MAX TEMP:  71;

INDIANAPOLIS   MOSUNNY   67  65  93 W7        29.88R
6HR MIN TEMP:  66; 6HR MAX TEMP:  71;

-EAGLE CREEK   SUNNY     68  63  84 VRB5      29.88R
6HR MIN TEMP:  67; 6HR MAX TEMP:  73;

KOKOMO +       MOSUNNY   67  64  90 SW9       29.87R
6HR MIN TEMP:  65; 6HR MAX TEMP:  71;

MT COMFORT *+  SUNNY     64  64 100 W6        29.89R
SHELBYVILLE    SUNNY     69  65  86 SW5       29.88R
6HR MIN TEMP:  67; 6HR MAX TEMP:  72;


$$

INZ033-034-041-042-049-050-058-059-181300-
EAST CENTRAL INDIANA

CITY           SKY/WX    TMP DP  RH WIND       PRES   REMARKS
MUNCIE         SUNNY     69  64  84 W8        29.87R
6HR MIN TEMP:  68; 6HR MAX TEMP:  73;

RICHMOND +     MOSUNNY   66  66 100 W6        29.90R FOG

$$

INZ060-061-067>069-081>083-085>088-181300-
SOUTHWEST INDIANA

CITY           SKY/WX    TMP DP  RH WIND       PRES   REMARKS
EVANSVILLE     CLEAR     70  66  87 W7        29.94R
6HR MIN TEMP:  69; 6HR MAX TEMP:  75;

HUNTINGBURG +  CLEAR     69  67  93 W6        29.93R
6HR MIN TEMP:  68; 6HR MAX TEMP:  74;


$$

INZ062-063-066-070>080-084-089>092-181300-
SOUTH CENTRAL AND SOUTHEAST INDIANA

CITY           SKY/WX    TMP DP  RH WIND       PRES   REMARKS
BLOOMINGTON    CLEAR     68  64  87 CALM      29.91R
6HR MIN TEMP:  67; 6HR MAX TEMP:  73;

MADISON *+     SUNNY     70  70 100 CALM      29.92S
SEYMOUR +      SUNNY     72  70  94 CALM      29.91R

$$





USA.gov is the U.S. government's official web portal to all federal, state and local government web resources and services.